EZY596Z EGPF-EGAC

Flight info

Callsign EZY596Z
Flight time 0h 23m
Altitude 20000
Route NORBO L186 TRN P600 BLACA DCT MAGEE
Aircraft A319/M-SDE3FGHIRWY/LB1

Departure

Time 2026-05-07 11:18
Airport Glasgow Airport (EGPF)

Arrival

Time 2026-05-07 11:41
Airport George Best Belfast City Airport (EGAC)
Time Latitude Longitude Altitude Speed Heading
2026-05-07 10:54 55.86618 -4.43108 33 ft 0 kts 74°
2026-05-07 11:09 55.86615 -4.43124 33 ft 4 kts 72°
2026-05-07 11:10 55.86605 -4.43167 30 ft 4 kts 49°
2026-05-07 11:10 55.86588 -4.43185 31 ft 2 kts 345°
2026-05-07 11:10 55.86586 -4.43184 31 ft 0 kts 343°
2026-05-07 11:12 55.86587 -4.43185 31 ft 1 kts 343°
2026-05-07 11:13 55.86610 -4.43197 31 ft 6 kts 343°
2026-05-07 11:13 55.86666 -4.43226 33 ft 10 kts 344°
2026-05-07 11:13 55.86737 -4.43263 31 ft 11 kts 344°
2026-05-07 11:13 55.86808 -4.43248 32 ft 11 kts 60°
2026-05-07 11:14 55.86829 -4.43107 33 ft 12 kts 75°
2026-05-07 11:14 55.86862 -4.42964 33 ft 13 kts 43°
2026-05-07 11:14 55.86945 -4.42886 32 ft 14 kts 26°
2026-05-07 11:14 55.87036 -4.42816 32 ft 15 kts 19°
2026-05-07 11:15 55.87138 -4.42748 33 ft 17 kts 21°
2026-05-07 11:15 55.87259 -4.42666 34 ft 19 kts 21°
2026-05-07 11:15 55.87385 -4.42577 32 ft 20 kts 30°
2026-05-07 11:15 55.87484 -4.42401 35 ft 20 kts 46°
2026-05-07 11:16 55.87581 -4.42222 33 ft 19 kts 46°
2026-05-07 11:16 55.87636 -4.42149 32 ft 0 kts 13°
2026-05-07 11:16 55.87645 -4.42145 31 ft 4 kts 10°
2026-05-07 11:17 55.87698 -4.42150 30 ft 10 kts 349°
2026-05-07 11:17 55.87755 -4.42216 32 ft 9 kts 314°
2026-05-07 11:17 55.87758 -4.42269 33 ft 0 kts 224°
2026-05-07 11:18 55.87756 -4.42271 33 ft 2 kts 224°
2026-05-07 11:18 55.87598 -4.42558 39 ft 74 kts 226°
2026-05-07 11:18 55.87065 -4.43551 47 ft 143 kts 223°
2026-05-07 11:18 55.86378 -4.44878 732 ft 145 kts 223°
2026-05-07 11:19 55.85683 -4.46186 1554 ft 145 kts 223°
2026-05-07 11:19 55.84942 -4.47492 2217 ft 159 kts 222°
2026-05-07 11:19 55.84097 -4.48971 2693 ft 183 kts 223°
2026-05-07 11:19 55.83127 -4.50675 3293 ft 208 kts 224°
2026-05-07 11:20 55.82040 -4.52591 3954 ft 231 kts 224°
2026-05-07 11:20 55.80875 -4.54649 4965 ft 239 kts 225°
2026-05-07 11:20 55.79685 -4.56754 6054 ft 244 kts 224°
2026-05-07 11:20 55.78479 -4.58894 7132 ft 247 kts 224°
2026-05-07 11:21 55.77248 -4.61070 8185 ft 251 kts 224°
2026-05-07 11:21 55.75996 -4.63274 9206 ft 256 kts 224°
2026-05-07 11:21 55.74712 -4.65526 10178 ft 263 kts 224°
2026-05-07 11:21 55.73350 -4.67916 10618 ft 287 kts 224°
2026-05-07 11:22 55.71893 -4.70465 11305 ft 299 kts 224°
2026-05-07 11:22 55.70383 -4.73049 12180 ft 304 kts 223°
2026-05-07 11:22 55.68610 -4.75131 13029 ft 311 kts 202°
2026-05-07 11:22 55.66458 -4.75820 13863 ft 320 kts 185°
2026-05-07 11:23 55.64240 -4.76236 14621 ft 322 kts 196°
2026-05-07 11:23 55.62105 -4.77505 15395 ft 326 kts 201°
2026-05-07 11:23 55.59955 -4.78857 16178 ft 330 kts 201°
2026-05-07 11:23 55.58510 -4.79716 16679 ft 333 kts 200°
2026-05-07 11:24 55.56278 -4.80934 17437 ft 338 kts 198°
2026-05-07 11:24 55.54007 -4.82101 18185 ft 342 kts 198°
2026-05-07 11:24 55.51698 -4.83260 18845 ft 347 kts 198°
2026-05-07 11:24 55.48607 -4.84814 19682 ft 351 kts 198°
2026-05-07 11:25 55.47016 -4.85622 19849 ft 352 kts 198°
2026-05-07 11:25 55.44675 -4.86822 19946 ft 345 kts 198°
2026-05-07 11:25 55.42420 -4.87983 19944 ft 332 kts 198°
2026-05-07 11:25 55.40203 -4.89132 19959 ft 339 kts 198°
2026-05-07 11:26 55.37902 -4.90333 19959 ft 349 kts 198°
2026-05-07 11:26 55.35603 -4.91530 19816 ft 346 kts 198°
2026-05-07 11:26 55.33301 -4.92725 19319 ft 344 kts 198°
2026-05-07 11:26 55.31014 -4.93910 18815 ft 342 kts 198°
2026-05-07 11:27 55.28737 -4.95085 18356 ft 340 kts 198°
2026-05-07 11:27 55.26446 -4.96259 17854 ft 338 kts 198°
2026-05-07 11:27 55.24200 -4.97406 17373 ft 335 kts 198°
2026-05-07 11:27 55.22004 -4.98527 16911 ft 331 kts 198°
2026-05-07 11:28 55.19803 -4.99655 16445 ft 328 kts 198°
2026-05-07 11:28 55.17621 -5.00774 15983 ft 325 kts 198°
2026-05-07 11:28 55.15459 -5.01884 15526 ft 323 kts 198°
2026-05-07 11:28 55.13310 -5.02991 15088 ft 320 kts 198°
2026-05-07 11:29 55.11207 -5.04074 14953 ft 308 kts 198°
2026-05-07 11:29 55.09186 -5.05122 14963 ft 300 kts 198°
2026-05-07 11:29 55.07198 -5.06150 14966 ft 298 kts 198°
2026-05-07 11:29 55.05214 -5.07179 14972 ft 297 kts 198°
2026-05-07 11:30 55.03228 -5.08210 14974 ft 297 kts 198°
2026-05-07 11:30 55.01258 -5.09232 14974 ft 293 kts 198°
2026-05-07 11:30 54.99311 -5.10237 14732 ft 290 kts 198°
2026-05-07 11:30 54.97374 -5.11232 14109 ft 290 kts 198°
2026-05-07 11:31 54.95454 -5.12268 13475 ft 288 kts 199°
2026-05-07 11:31 54.93581 -5.13297 12840 ft 285 kts 199°
2026-05-07 11:31 54.91697 -5.14334 12203 ft 282 kts 199°
2026-05-07 11:31 54.89836 -5.15356 11565 ft 279 kts 199°
2026-05-07 11:32 54.86157 -5.17378 10333 ft 275 kts 199°
2026-05-07 11:32 54.84338 -5.18375 9845 ft 268 kts 199°
2026-05-07 11:32 54.82617 -5.19403 9220 ft 263 kts 207°
2026-05-07 11:33 54.81250 -5.21414 8589 ft 259 kts 235°
2026-05-07 11:33 54.80560 -5.24285 7936 ft 259 kts 252°
2026-05-07 11:33 54.80125 -5.27319 7267 ft 259 kts 253°
2026-05-07 11:33 54.79722 -5.30353 6711 ft 259 kts 254°
2026-05-07 11:34 54.79328 -5.33386 6302 ft 257 kts 254°
2026-05-07 11:34 54.78944 -5.36401 5862 ft 255 kts 254°
2026-05-07 11:34 54.78565 -5.39394 5430 ft 253 kts 254°
2026-05-07 11:34 54.78183 -5.42372 5101 ft 252 kts 254°
2026-05-07 11:35 54.77802 -5.45328 4849 ft 250 kts 254°
2026-05-07 11:35 54.77427 -5.48246 4589 ft 245 kts 254°
2026-05-07 11:35 54.77069 -5.51070 4319 ft 236 kts 254°
2026-05-07 11:35 54.76725 -5.53798 4061 ft 228 kts 254°
2026-05-07 11:36 54.76388 -5.56458 3796 ft 224 kts 254°
2026-05-07 11:36 54.76050 -5.59077 3564 ft 222 kts 254°
2026-05-07 11:36 54.75713 -5.61692 3358 ft 223 kts 253°
2026-05-07 11:36 54.75383 -5.64303 3158 ft 222 kts 253°
2026-05-07 11:37 54.75054 -5.66903 2965 ft 220 kts 254°
2026-05-07 11:37 54.74724 -5.69435 2808 ft 210 kts 253°
2026-05-07 11:37 54.74222 -5.71710 2675 ft 197 kts 236°
2026-05-07 11:37 54.73334 -5.73405 2592 ft 186 kts 217°
2026-05-07 11:38 54.72302 -5.74653 2424 ft 178 kts 214°
2026-05-07 11:38 54.71300 -5.75860 2189 ft 172 kts 214°
2026-05-07 11:38 54.70350 -5.77002 1955 ft 158 kts 214°
2026-05-07 11:38 54.69491 -5.78036 1758 ft 144 kts 214°
2026-05-07 11:39 54.68671 -5.79021 1562 ft 143 kts 214°
2026-05-07 11:39 54.67847 -5.80011 1367 ft 142 kts 214°
2026-05-07 11:39 54.67093 -5.80917 1169 ft 126 kts 213°
2026-05-07 11:39 54.66394 -5.81755 996 ft 119 kts 213°
2026-05-07 11:40 54.65717 -5.82561 817 ft 117 kts 214°
2026-05-07 11:40 54.65052 -5.83363 660 ft 116 kts 214°
2026-05-07 11:40 54.64393 -5.84156 513 ft 116 kts 213°
2026-05-07 11:40 54.63736 -5.84948 388 ft 115 kts 212°
2026-05-07 11:41 54.63074 -5.85743 200 ft 116 kts 213°
2026-05-07 11:41 54.62422 -5.86525 50 ft 114 kts 212°
2026-05-07 11:41 54.61882 -5.87160 19 ft 58 kts 214°
2026-05-07 11:41 54.61655 -5.87438 17 ft 33 kts 215°
2026-05-07 11:42 54.61495 -5.87631 13 ft 24 kts 214°
2026-05-07 11:42 54.61367 -5.87783 14 ft 18 kts 214°
2026-05-07 11:42 54.61286 -5.87729 15 ft 11 kts 125°
2026-05-07 11:42 54.61252 -5.87625 18 ft 9 kts 88°
2026-05-07 11:43 54.61289 -5.87557 18 ft 8 kts 36°
2026-05-07 11:43 54.61331 -5.87509 20 ft 7 kts 34°
2026-05-07 11:43 54.61372 -5.87460 21 ft 8 kts 36°
2026-05-07 11:43 54.61412 -5.87380 21 ft 9 kts 56°
2026-05-07 11:44 54.61454 -5.87311 21 ft 7 kts 52°
2026-05-07 11:44 54.61441 -5.87239 23 ft 6 kts 130°
2026-05-07 11:44 54.61432 -5.87218 21 ft 0 kts 126°